2023-016A

Last updated on Wed Feb 08 2023 00:02:47 GMT+0000 (Coordinated Universal Time)

1 55506U 23016A 23038.63146152 -.00000282 00000+0 00000+0 0 9998 2 55506 0.5609 284.9033 0014634 239.3563 301.3082 1.01519230 22
UTC large
Height (km)
Speed (km/s)
/
Latitude / Longitude
Inclination (degrees)
Orbital Period (minutes)
Azimuth
Elevation
Range (km)
Doppler Factor

Next 0 passes for location: London (51.5072 / 0.1276)

Sorry there are no passes over London.